This demonstration page uses our WeatherBlox Daily Observations layout. Learn more.

Left ArrowRight Arrow

Hourly Observations for June 18, 2019

Temp ( °F °C ) Dew Point ( °F °C ) Humidity (%) Winds ( mph kmh ) Pressure ( in mb ) Visibility ( mi km ) Precip ( " mm )
12:51 am 00:51 Clear 80 26.7 30 -1.1 16 16 NNW 12 19 29.72 1006 10 16 0.00 0.00
1:51 am 01:51 Clear 79 26.1 33 0.6 19 19 N 10 17 29.72 1007 10 16 0.00 0.00
2:51 am 02:51 Clear 77 25 34 1.1 21 21 NNW 9 15 29.74 1007 10 16 0.00 0.00
3:51 am 03:51 Clear 73 22.8 33 0.6 23 23 NW 8 13 29.75 1008 10 16 0.00 0.00
4:51 am 04:51 Clear 69 20.6 30 -1.1 23 23 SSE 3 6 29.78 1009 10 16 0.00 0.00
5:51 am 05:51 Sunny 70 21.1 30 -1.1 23 23 SE 5 7 29.80 1009 10 16 0.00 0.00
6:51 am 06:51 Sunny 74 23.3 31 -0.6 20 20 SSE 5 7 29.82 1010 10 16 0.00 0.00
7:51 am 07:51 Sunny 80 26.7 32 0 17 17 S 6 9 29.82 1010 10 16 0.00 0.00
8:51 am 08:51 Sunny 84 28.9 33 0.6 16 16 Calm 29.82 1010 10 16 0.00 0.00
9:51 am 09:51 Sunny 86 30 34 1.1 15 15 VRB 3 6 29.82 1010 10 16 0.00 0.00
10:51 am 10:51 Sunny 92 33.3 32 0 12 12 VRB 6 9 29.81 1009 10 16 0.00 0.00
11:51 am 11:51 Sunny 94 34.4 33 0.6 12 12 SSE 6 9 29.79 1009 10 16 0.00 0.00
12:51 pm 12:51 Sunny 97 36.1 32 0 10 10 N 9 15 29.75 1008 10 16 0.00 0.00
1:51 pm 13:51 Sunny 97 36.1 27 -2.8 8 8 SE 9 15 29.73 1007 10 16 0.00 0.00
2:51 pm 14:51 Mostly Sunny 99 37.2 27 -2.8 8 8 W 12 19 29.71 1006 10 16 0.00 0.00
3:51 pm 15:51 Partly Cloudy 99 37.2 26 -3.3 7 7 W 9 15 29.69 1005 10 16 0.00 0.00
4:51 pm 16:51 Partly Cloudy 100 37.8 28 -2.2 8 8 W 18 30 29.68 1005 10 16 0.00 0.00
5:51 pm 17:51 Partly Cloudy 98 36.7 27 -2.8 8 8 NW 17 28 29.68 1005 10 16 0.00 0.00
6:51 pm 18:51 Mostly Sunny 95 35 20 -6.7 6 6 WNW 20 31 29.69 1006 10 16 0.00 0.00
7:51 pm 19:51 Clear 90 32.2 18 -7.8 7 7 NW 20 31 29.72 1006 10 16 0.00 0.00
8:51 pm 20:51 Clear 86 30 16 -8.9 7 7 NW 14 22 29.75 1007 10 16 0.00 0.00
9:51 pm 21:51 Clear 82 27.8 15 -9.4 8 8 W 12 19 29.78 1008 10 16 0.00 0.00
10:51 pm 22:51 Clear 77 25 18 -7.8 11 11 NNW 8 13 29.79 1009 10 16 0.00 0.00
11:51 pm 23:51 Clear 78 25.6 17 -8.3 10 10 NW 9 15 29.79 1009 10 16 0.00 0.00

Powered by AerisWeather